Staples, MN

10:51 PM CST on February 07, 2016 (GMT -0600)
Staples Municipal

Weather History for KSAZ - November, 2013

Change the Weather History Date:

Sunday, November 17, 2013

  Actual Average (WUND) Record (WUND)
Temperature  
Mean Temperature 31 °F -  
Max Temperature 39 °F - - (-1)
Min Temperature 23 °F - - (-1)
Degree Days  
Heating Degree Days 34    
Moisture  
Dew Point 31 °F    
Average Humidity 93    
Maximum Humidity 100    
Minimum Humidity 80    
Precipitation  
Precipitation 0.01 in - - ()
Sea Level Pressure  
Sea Level Pressure 29.49 in    
Wind  
Wind Speed 11 mph (WNW)    
Max Wind Speed 24 mph    
Max Gust Speed 33 mph    
Visibility 9 miles    
Events      
Averages and records for this station are not official NWS values.
T = Trace of Precipitation, MM = Missing Value Source: NWS Daily Summary

Daily Weather History Graph

Daily Weather History Graph

Search for Another Location

Airport or City:

Trip Planner

Search our weather history database for the weather conditions in past years. The results will help you decide how hot, cold, wet, or windy it might be!

Date:

Astronomy

Nov. 17, 2013 Rise Set
Actual Time 7:23 AM CST 4:44 PM CST
Civil Twilight 6:51 AM CST 5:17 PM CST
Nautical Twilight 6:14 AM CST 5:53 PM CST
Astronomical Twilight 5:38 AM CST 6:29 PM CST
Moon 5:01 PM CST (11/17) 7:18 AM CST (11/17)
Length of Visible Light 10h 25m
Length of Day
9h 20m
Full, 100% of the Moon is Illuminated
Nov 17
Full
Nov 25
Last Quarter
Dec 2
New
Dec 9
First Quarter
Dec 17
Full

Hourly Weather History & Observations

Time (CST) Temp. Windchill Dew Point Humidity Pressure Visibility Wind Dir Wind Speed Gust Speed Precip Events Conditions
12:14 AM 39.2 °F - 39.2 °F 100% 29.26 in 1.5 mi Calm Calm - 0.01 in   Light Drizzle
12:33 AM 39.2 °F - 39.2 °F 100% 29.25 in 0.5 mi Calm Calm - 0.01 in   Light Drizzle
12:53 AM 39.2 °F - 39.2 °F 100% 29.25 in 0.8 mi Calm Calm - 0.01 in   Light Drizzle
1:13 AM 39.2 °F - 39.2 °F 100% 29.25 in 0.8 mi Calm Calm - N/A   Overcast
1:34 AM 39.2 °F - 39.2 °F 100% 29.25 in 0.8 mi Calm Calm - N/A   Overcast
1:53 AM 39.2 °F 35.9 °F 39.2 °F 100% 29.25 in 0.8 mi SW 4.6 mph - N/A   Overcast
2:13 AM 39.2 °F 33.0 °F 39.2 °F 100% 29.26 in 2.0 mi West 9.2 mph - N/A   Overcast
2:34 AM 39.2 °F 32.5 °F 39.2 °F 100% 29.26 in 1.5 mi West 10.4 mph - N/A   Overcast
2:53 AM 39.2 °F 33.6 °F 39.2 °F 100% 29.26 in 2.5 mi West 8.1 mph - N/A   Overcast
3:13 AM 39.2 °F 35.0 °F 39.2 °F 100% 29.26 in 7.0 mi WNW 5.8 mph - N/A   Overcast
3:34 AM 39.2 °F 33.6 °F 39.2 °F 100% 29.26 in 7.0 mi WNW 8.1 mph - N/A   Overcast
3:53 AM 39.2 °F 32.5 °F 39.2 °F 100% 29.27 in 7.0 mi West 10.4 mph - N/A   Overcast
4:13 AM 37.4 °F 30.8 °F 37.4 °F 100% 29.27 in 7.0 mi West 9.2 mph - N/A   Overcast
4:34 AM 37.4 °F 30.3 °F 37.4 °F 100% 29.28 in 7.0 mi West 10.4 mph - N/A   Overcast
4:53 AM 37.4 °F 29.8 °F 37.4 °F 100% 29.30 in 10.0 mi West 11.5 mph 18.4 mph N/A   Overcast
5:13 AM 37.4 °F 30.3 °F 37.4 °F 100% 29.30 in 10.0 mi WNW 10.4 mph - N/A   Overcast
5:34 AM 37.4 °F 29.8 °F 37.4 °F 100% 29.30 in 10.0 mi West 11.5 mph - N/A   Overcast
5:53 AM 37.4 °F 29.8 °F 35.6 °F 93% 29.31 in 10.0 mi WNW 11.5 mph 16.1 mph N/A   Overcast
6:13 AM 37.4 °F 29.8 °F 35.6 °F 93% 29.33 in 10.0 mi WNW 11.5 mph 16.1 mph N/A   Overcast
6:34 AM 37.4 °F 29.8 °F 35.6 °F 93% 29.34 in 7.0 mi WNW 11.5 mph 18.4 mph N/A   Overcast
6:53 AM 37.4 °F 29.3 °F 35.6 °F 93% 29.34 in 10.0 mi WNW 12.7 mph - N/A   Overcast
7:13 AM 37.4 °F 28.2 °F 35.6 °F 93% 29.34 in 10.0 mi NW 16.1 mph - N/A   Overcast
7:34 AM 35.6 °F 27.5 °F 35.6 °F 100% 29.35 in 10.0 mi WNW 11.5 mph - N/A   Overcast
7:53 AM 35.6 °F 28.0 °F 35.6 °F 100% 29.36 in 10.0 mi NW 10.4 mph - N/A   Overcast
8:13 AM 35.6 °F 27.1 °F 35.6 °F 100% 29.36 in 10.0 mi NW 12.7 mph - N/A   Overcast
8:34 AM 35.6 °F 27.5 °F 35.6 °F 100% 29.37 in 10.0 mi NW 11.5 mph 17.3 mph N/A   Overcast
8:53 AM 37.4 °F 29.3 °F 35.6 °F 93% 29.37 in 10.0 mi NW 12.7 mph - N/A   Overcast
9:13 AM 37.4 °F 28.5 °F 35.6 °F 93% 29.37 in 10.0 mi WNW 15.0 mph - N/A   Overcast
9:33 AM 37.4 °F 30.3 °F 35.6 °F 93% 29.39 in 10.0 mi WNW 10.4 mph 18.4 mph N/A   Overcast
9:54 AM 37.4 °F 30.8 °F 35.6 °F 93% 29.39 in 10.0 mi WNW 9.2 mph 16.1 mph N/A   Overcast
10:13 AM 37.4 °F 27.8 °F 35.6 °F 93% 29.40 in 10.0 mi WNW 17.3 mph 20.7 mph N/A   Overcast
10:33 AM 37.4 °F 26.9 °F 33.8 °F 87% 29.41 in 10.0 mi NW 20.7 mph 27.6 mph N/A   Overcast
10:54 AM 37.4 °F 29.8 °F 33.8 °F 87% 29.42 in 10.0 mi NW 11.5 mph 21.9 mph N/A   Overcast
11:13 AM 37.4 °F 28.5 °F 35.6 °F 93% 29.42 in 10.0 mi WNW 15.0 mph 18.4 mph N/A   Overcast
11:33 AM 37.4 °F 27.5 °F 33.8 °F 87% 29.42 in 10.0 mi WNW 18.4 mph - N/A   Overcast
11:54 AM 37.4 °F 28.5 °F 35.6 °F 93% 29.42 in 10.0 mi WNW 15.0 mph - N/A   Overcast
12:13 PM 35.6 °F 25.5 °F 33.8 °F 93% 29.43 in 10.0 mi WNW 17.3 mph 23.0 mph N/A   Overcast
12:33 PM 35.6 °F 25.9 °F 33.8 °F 93% 29.44 in 10.0 mi WNW 16.1 mph 21.9 mph N/A   Overcast
12:54 PM 35.6 °F 24.5 °F 33.8 °F 93% 29.46 in 10.0 mi WNW 20.7 mph 25.3 mph N/A   Overcast
1:13 PM 33.8 °F 23.2 °F 32.0 °F 93% 29.47 in 10.0 mi West 17.3 mph 24.2 mph N/A   Overcast
1:33 PM 33.8 °F 23.2 °F 30.2 °F 87% 29.49 in 10.0 mi WNW 17.3 mph - N/A   Overcast
1:54 PM 32.0 °F 20.1 °F 30.2 °F 93% 29.50 in 10.0 mi WNW 19.6 mph 27.6 mph N/A   Overcast
2:13 PM 30.2 °F 18.5 °F 30.2 °F 100% 29.51 in 10.0 mi WNW 17.3 mph 24.2 mph N/A   Overcast
2:33 PM 30.2 °F 17.8 °F 30.2 °F 100% 29.52 in 10.0 mi WNW 19.6 mph 25.3 mph N/A   Overcast
2:54 PM 30.2 °F 18.1 °F 28.4 °F 93% 29.53 in 10.0 mi WNW 18.4 mph - N/A   Overcast
3:13 PM 28.4 °F 15.8 °F 28.4 °F 100% 29.54 in 10.0 mi West 18.4 mph - N/A   Overcast
3:33 PM 28.4 °F 14.7 °F 26.6 °F 93% 29.56 in 10.0 mi WNW 21.9 mph 27.6 mph N/A   Overcast
3:53 PM 28.4 °F 15.4 °F 26.6 °F 93% 29.57 in 10.0 mi NW 19.6 mph 23.0 mph N/A   Overcast
4:14 PM 28.4 °F 15.1 °F 26.6 °F 93% 29.59 in 10.0 mi WNW 20.7 mph 26.5 mph N/A   Overcast
4:33 PM 28.4 °F 14.4 °F 26.6 °F 93% 29.60 in 10.0 mi NW 23.0 mph 27.6 mph N/A   Overcast
4:53 PM 26.6 °F 12.0 °F 24.8 °F 93% 29.62 in 10.0 mi WNW 23.0 mph 29.9 mph N/A   Overcast
5:13 PM 26.6 °F 13.4 °F 24.8 °F 93% 29.63 in 10.0 mi WNW 18.4 mph 29.9 mph N/A   Overcast
5:33 PM 26.6 °F 12.4 °F 24.8 °F 93% 29.65 in 10.0 mi WNW 21.9 mph 29.9 mph N/A   Overcast
5:53 PM 26.6 °F 13.8 °F 24.8 °F 93% 29.66 in 10.0 mi WNW 17.3 mph 31.1 mph N/A   Overcast
6:14 PM 26.6 °F 12.4 °F 23.0 °F 86% 29.68 in 10.0 mi WNW 21.9 mph 29.9 mph N/A   Overcast
6:33 PM 26.6 °F 13.4 °F 23.0 °F 86% 29.69 in 10.0 mi WNW 18.4 mph 23.0 mph N/A   Overcast
6:53 PM 26.6 °F 12.0 °F 23.0 °F 86% 29.70 in 10.0 mi WNW 23.0 mph 28.8 mph N/A   Overcast
7:14 PM 26.6 °F 13.4 °F 23.0 °F 86% 29.70 in 10.0 mi WNW 18.4 mph 28.8 mph N/A   Overcast
7:33 PM 24.8 °F 10.7 °F 21.2 °F 86% 29.71 in 10.0 mi WNW 19.6 mph 32.2 mph N/A   Overcast
7:53 PM 24.8 °F 10.7 °F 21.2 °F 86% 29.73 in 10.0 mi WNW 19.6 mph 33.4 mph N/A   Overcast
8:13 PM 24.8 °F 9.6 °F 21.2 °F 86% 29.74 in 10.0 mi NW 23.0 mph 29.9 mph N/A   Overcast
8:33 PM 24.8 °F 10.3 °F 21.2 °F 86% 29.74 in 10.0 mi WNW 20.7 mph 26.5 mph N/A   Overcast
8:53 PM 24.8 °F 10.7 °F 21.2 °F 86% 29.75 in 10.0 mi WNW 19.6 mph 27.6 mph N/A   Overcast
9:14 PM 24.8 °F 9.6 °F 19.4 °F 80% 29.76 in 10.0 mi NW 23.0 mph 31.1 mph N/A   Overcast
9:33 PM 24.8 °F 10.3 °F 21.2 °F 86% 29.77 in 10.0 mi WNW 20.7 mph 28.8 mph N/A   Overcast
9:53 PM 24.8 °F 10.7 °F 21.2 °F 86% 29.78 in 10.0 mi WNW 19.6 mph 28.8 mph N/A   Overcast
10:13 PM 24.8 °F 10.0 °F 19.4 °F 80% 29.79 in 10.0 mi WNW 21.9 mph 31.1 mph N/A   Overcast
10:33 PM 24.8 °F 10.7 °F 19.4 °F 80% 29.80 in 10.0 mi NW 19.6 mph 32.2 mph N/A   Overcast
10:53 PM 24.8 °F 11.5 °F 19.4 °F 80% 29.80 in 10.0 mi WNW 17.3 mph 29.9 mph N/A   Overcast
11:13 PM 24.8 °F 11.9 °F 19.4 °F 80% 29.81 in 10.0 mi WNW 16.1 mph 27.6 mph N/A   Overcast
11:33 PM 23.0 °F 6.9 °F 19.4 °F 86% 29.82 in 10.0 mi NW 24.2 mph 28.8 mph N/A   Overcast
11:53 PM 23.0 °F 8.7 °F 17.6 °F 80% 29.82 in 10.0 mi NW 18.4 mph - N/A   Overcast